M0JGD Weather Reports


time (UTC)temp
C
wind
direction
speed
KPH
gust
KPH
rain 1hr
cm
rain 24hr
cm
rain mn
cm
humidity
%
barometer
mb
20260510113056 11 80 1.6 6.4 0.00 0.08 0.08 77 1013.8
20260510111556 11 106 1.6 6.4 0.00 0.08 0.08 79 1013.9
20260510110056 11 78 0.0 4.8 0.00 0.08 0.08 82 1013.9
20260510104558 10 92 1.6 6.4 0.00 0.08 0.08 80 1013.9
20260510103057 10 92 1.6 4.8 0.05 0.08 0.08 83 1014.1
20260510101554 10 74 1.6 4.8 0.05 0.08 0.08 84 1014.0
20260510094555 10 79 1.6 4.8 0.08 0.08 0.08 84 1014.1
20260510093102 10 77 1.6 6.4 0.03 0.03 0.03 82 1014.0
20260510091556 10 102 0.0 4.8 0.03 0.03 0.03 81 1014.2
20260510090055 10 0 0.0 4.8 0.00 0.00 0.00 79 1014.3
20260510084553 10 71 1.6 6.4 0.00 0.00 0.00 77 1014.2
20260510083100 10 93 1.6 6.4 0.00 0.00 0.00 77 1014.4
20260510081556 10 0 0.0 6.4 0.00 0.00 0.00 77 1014.3
20260510080058 10 0 1.6 4.8 0.00 0.00 0.00 77 1014.3
20260510074624 10 0 0.0 6.4 0.00 0.00 0.00 78 1014.2
20260510073105 10 69 0.0 6.4 0.00 0.00 0.00 78 1014.0
20260510071553 10 90 1.6 6.4 0.00 0.00 0.00 78 1014.1
20260510070056 10 107 1.6 4.8 0.00 0.00 0.00 79 1014.2
20260510064557 9 96 1.6 6.4 0.00 0.00 0.00 80 1014.3
20260510063053 9 86 1.6 4.8 0.00 0.00 0.00 81 1014.4
20260510061557 9 0 0.0 0.0 0.00 0.00 0.00 82 1014.4
20260510060057 9 0 0.0 0.0 0.00 0.00 0.00 82 1014.4
20260510054555 8 0 0.0 0.0 0.00 0.00 0.00 82 1014.3
20260510053055 8 0 0.0 3.2 0.00 0.00 0.00 82 1014.2
20260510051557 8 0 0.0 3.2 0.00 0.00 0.00 82 1014.2
20260510050056 8 94 1.6 3.2 0.00 0.00 0.00 82 1014.2
20260510044554 8 71 0.0 4.8 0.00 0.00 0.00 81 1014.2
20260510043052 9 74 0.0 4.8 0.00 0.00 0.00 81 1014.1
20260510041553 9 0 0.0 4.8 0.00 0.00 0.00 80 1014.2
20260510040058 9 110 1.6 3.2 0.00 0.00 0.00 80 1014.2
20260510034553 10 0 0.0 3.2 0.00 0.00 0.00 79 1014.3
20260510033119 10 0 0.0 0.0 0.00 0.00 0.00 79 1014.3
20260510031554 10 0 0.0 0.0 0.00 0.00 0.00 78 1014.4
20260510030055 10 0 0.0 0.0 0.00 0.00 0.00 78 1014.5
20260510024555 10 0 0.0 4.8 0.00 0.00 0.00 78 1014.4
20260510023056 10 0 0.0 3.2 0.00 0.00 0.00 77 1014.4
20260510021555 10 0 0.0 4.8 0.00 0.00 0.00 76 1014.5
20260510020056 10 0 0.0 0.0 0.00 0.00 0.00 76 1014.5
20260510014556 10 0 1.6 3.2 0.00 0.00 0.00 75 1014.4
20260510013054 11 0 0.0 1.6 0.00 0.00 0.00 73 1014.5
20260510011552 11 101 0.0 3.2 0.00 0.00 0.00 71 1014.5
20260510010055 11 0 0.0 3.2 0.00 0.00 0.00 70 1014.5
20260510004554 11 0 0.0 0.0 0.00 0.00 0.00 69 1014.5
20260510003105 11 0 0.0 0.0 0.00 0.00 0.00 65 1014.3
20260510001551 11 0 0.0 3.2 0.00 0.00 0.00 63 1014.5
20260510000054 11 118 1.6 4.8 0.00 0.00 0.00 61 1014.6
20260509234611 11 99 1.6 4.8 0.00 0.00 0.00 60 1014.5
20260509233053 11 137 1.6 4.8 0.00 0.00 0.00 58 1014.6
20260509231602 11 109 0.0 3.2 0.00 0.00 0.00 57 1014.6
20260509230059 11 94 1.6 3.2 0.00 0.00 0.00 56 1014.6
20260509224601 11 0 0.0 3.2 0.00 0.00 0.00 55 1014.7
20260509223102 11 0 0.0 0.0 0.00 0.00 0.00 54 1014.6
20260509221555 11 113 1.6 3.2 0.00 0.00 0.00 54 1014.7
20260509220058 11 106 0.0 3.2 0.00 0.00 0.00 54 1014.8
20260509214557 11 0 0.0 0.0 0.00 0.00 0.00 54 1014.7
20260509213058 11 0 0.0 0.0 0.00 0.00 0.00 55 1014.7
20260509211555 11 0 0.0 0.0 0.00 0.00 0.00 55 1014.8
20260509210059 12 0 0.0 0.0 0.00 0.00 0.00 56 1014.6
20260509204606 12 0 0.0 0.0 0.00 0.00 0.00 57 1014.5
20260509203110 12 0 0.0 0.0 0.00 0.00 0.00 57 1014.3
20260509201554 13 0 0.0 3.2 0.00 0.00 0.00 57 1014.1
20260509200055 13 107 0.0 3.2 0.00 0.00 0.00 55 1014.0
20260509194557 14 105 1.6 4.8 0.00 0.00 0.00 53 1013.9
20260509193055 15 107 0.0 0.0 0.00 0.00 0.00 51 1013.9
20260509191555 15 107 1.6 4.8 0.00 0.00 0.00 50 1013.9
20260509190056 16 107 1.6 6.4 0.00 0.00 0.00 48 1013.6
20260509184559 16 98 3.2 6.4 0.00 0.00 0.00 47 1013.4
20260509183104 17 116 0.0 4.8 0.00 0.00 0.00 49 1013.6
20260509181609 17 101 1.6 6.4 0.00 0.00 0.00 48 1013.4
20260509180117 18 110 1.6 6.4 0.00 0.00 0.00 48 1013.4
20260509174615 18 96 1.6 6.4 0.00 0.00 0.00 47 1013.4
20260509173108 19 107 3.2 9.7 0.00 0.00 0.00 45 1013.3
20260509171600 20 92 3.2 9.7 0.00 0.00 0.00 44 1012.9
20260509170054 20 111 1.6 9.7 0.00 0.00 0.00 44 1013.0
20260509164557 21 98 3.2 6.4 0.00 0.00 0.00 43 1013.0
20260509163110 21 111 3.2 9.7 0.00 0.00 0.00 43 1013.0
20260509161606 22 115 1.6 9.7 0.00 0.00 0.00 41 1013.0
20260509160056 21 123 1.6 6.4 0.00 0.00 0.00 43 1012.9
20260509154604 21 0 1.6 6.4 0.00 0.00 0.00 41 1012.9
20260509153109 22 116 1.6 4.8 0.00 0.00 0.00 40 1013.1
20260509151604 21 119 1.6 6.4 0.00 0.00 0.00 41 1013.2
20260509150055 21 130 1.6 6.4 0.00 0.00 0.00 43 1013.3
20260509144555 21 111 4.8 9.7 0.00 0.00 0.00 40 1013.4
20260509143106 22 109 1.6 6.4 0.00 0.00 0.00 40 1013.4
20260509141555 22 117 3.2 9.7 0.00 0.00 0.00 38 1013.4
20260509140057 22 0 1.6 6.4 0.00 0.00 0.00 41 1013.2
20260509134556 22 107 1.6 6.4 0.00 0.00 0.00 42 1013.2
20260509133106 23 90 1.6 4.8 0.00 0.00 0.00 38 1013.2
20260509131553 22 104 0.0 6.4 0.00 0.00 0.00 40 1013.4
20260509130105 22 0 0.0 6.4 0.00 0.00 0.00 41 1013.6
20260509124610 23 92 3.2 9.7 0.00 0.00 0.00 41 1013.7
20260509123100 21 113 1.6 6.4 0.00 0.00 0.00 46 1013.8
20260509121558 22 105 1.6 6.4 0.00 0.00 0.00 43 1013.9
20260509120059 21 108 0.0 6.4 0.00 0.00 0.00 44 1014.1
20260509114558 22 92 3.2 8.0 0.00 0.00 0.00 43 1014.4